UAL1783 KLAX-KBOS

Flight info

Callsign UAL1783
Flight time N/A
Altitude 37000
Route DOTSS2 CLEEE DCT PKE J96 CIM DCT SLN DCT IRK DCT JOT/N0464F390 J146 GIJ J554 JHW Q82 PONCT JFUND2
Aircraft B739/M-SDE2E3FGHIRWXY/LB1

Departure

Time N/A
Airport Los Angeles International Airport (KLAX)

Arrival

Time 2026-05-07 04:53
Airport Boston Logan International Airport (KBOS)
Time Latitude Longitude Altitude Speed Heading
2026-05-07 03:37 42.01821 -83.80273 36999 ft 571 kts 84°
2026-05-07 03:38 42.02586 -83.71538 37002 ft 571 kts 84°
2026-05-07 03:38 42.03449 -83.61582 37000 ft 571 kts 84°
2026-05-07 03:39 42.04362 -83.50952 36996 ft 571 kts 85°
2026-05-07 03:39 42.05192 -83.40325 36996 ft 571 kts 88°
2026-05-07 03:40 42.05667 -83.29670 37000 ft 570 kts 89°
2026-05-07 03:40 42.06138 -83.18991 36999 ft 571 kts 88°
2026-05-07 03:41 42.06664 -83.08377 36998 ft 571 kts 88°
2026-05-07 03:41 42.07176 -82.97702 37001 ft 572 kts 88°
2026-05-07 03:42 42.07676 -82.86931 37009 ft 574 kts 88°
2026-05-07 03:42 42.08163 -82.76252 37006 ft 576 kts 88°
2026-05-07 03:43 42.08647 -82.65456 37007 ft 578 kts 88°
2026-05-07 03:43 42.09122 -82.54630 37000 ft 580 kts 88°
2026-05-07 03:44 42.09589 -82.43778 37007 ft 581 kts 88°
2026-05-07 03:44 42.10044 -82.32943 37005 ft 581 kts 88°
2026-05-07 03:45 42.10492 -82.22011 37008 ft 582 kts 89°
2026-05-07 03:45 42.10929 -82.11125 37000 ft 583 kts 89°
2026-05-07 03:46 42.11356 -82.00214 37006 ft 583 kts 89°
2026-05-07 03:46 42.11773 -81.89296 37005 ft 584 kts 89°
2026-05-07 03:47 42.12177 -81.78437 37011 ft 584 kts 89°
2026-05-07 03:47 42.12574 -81.67494 37014 ft 585 kts 89°
2026-05-07 03:48 42.12961 -81.56532 37019 ft 585 kts 89°
2026-05-07 03:48 42.13339 -81.45573 37019 ft 586 kts 89°
2026-05-07 03:49 42.13706 -81.34596 37022 ft 586 kts 89°
2026-05-07 03:49 42.14061 -81.23619 37021 ft 587 kts 89°
2026-05-07 03:50 42.14406 -81.12621 37023 ft 588 kts 90°
2026-05-07 03:50 42.14740 -81.01669 37020 ft 588 kts 90°
2026-05-07 03:51 42.15066 -80.90629 37019 ft 589 kts 90°
2026-05-07 03:51 42.15382 -80.79600 37015 ft 590 kts 90°
2026-05-07 03:52 42.15688 -80.68561 37016 ft 590 kts 90°
2026-05-07 03:52 42.15982 -80.57495 37015 ft 591 kts 90°
2026-05-07 03:53 42.16269 -80.46412 37010 ft 591 kts 90°
2026-05-07 03:53 42.16543 -80.35319 37010 ft 592 kts 90°
2026-05-07 03:54 42.16805 -80.24216 37011 ft 593 kts 90°
2026-05-07 03:54 42.17057 -80.13084 37006 ft 593 kts 90°
2026-05-07 03:55 42.17299 -80.01989 37024 ft 594 kts 91°
2026-05-07 03:55 42.17531 -79.90827 37010 ft 595 kts 91°
2026-05-07 03:56 42.17751 -79.79740 37006 ft 595 kts 91°
2026-05-07 03:56 42.17962 -79.68572 37003 ft 595 kts 91°
2026-05-07 03:57 42.18162 -79.57401 36996 ft 595 kts 91°
2026-05-07 03:57 42.18351 -79.46238 36982 ft 595 kts 91°
2026-05-07 03:58 42.18529 -79.35062 36992 ft 595 kts 91°
2026-05-07 03:58 42.18696 -79.23898 36986 ft 595 kts 91°
2026-05-07 03:59 42.18881 -79.12706 36981 ft 596 kts 88°
2026-05-07 03:59 42.20025 -79.01634 37002 ft 597 kts 80°
2026-05-07 04:00 42.21549 -78.90597 36999 ft 598 kts 79°
2026-05-07 04:00 42.23033 -78.79548 37002 ft 599 kts 80°
2026-05-07 04:01 42.24430 -78.68526 36989 ft 599 kts 81°
2026-05-07 04:01 42.25805 -78.57411 36995 ft 599 kts 81°
2026-05-07 04:02 42.27172 -78.46308 37001 ft 599 kts 81°
2026-05-07 04:02 42.28538 -78.35181 36998 ft 599 kts 81°
2026-05-07 04:03 42.29881 -78.24157 36991 ft 598 kts 81°
2026-05-07 04:03 42.31221 -78.13064 36988 ft 598 kts 81°
2026-05-07 04:04 42.32546 -78.01993 36991 ft 597 kts 81°
2026-05-07 04:04 42.33862 -77.90907 36992 ft 596 kts 81°
2026-05-07 04:05 42.35169 -77.79822 36992 ft 596 kts 81°
2026-05-07 04:05 42.36458 -77.68763 36991 ft 595 kts 81°
2026-05-07 04:06 42.37738 -77.57695 37002 ft 595 kts 81°
2026-05-07 04:06 42.39004 -77.46655 36987 ft 594 kts 82°
2026-05-07 04:07 42.40260 -77.35606 36986 ft 594 kts 82°
2026-05-07 04:07 42.41505 -77.24557 36968 ft 594 kts 82°
2026-05-07 04:08 42.42738 -77.13513 36970 ft 593 kts 82°
2026-05-07 04:08 42.43963 -77.02457 36964 ft 593 kts 82°
2026-05-07 04:09 42.45171 -76.91394 36956 ft 593 kts 82°
2026-05-07 04:09 42.46364 -76.80348 36958 ft 593 kts 82°
2026-05-07 04:10 42.47550 -76.69306 36939 ft 593 kts 82°
2026-05-07 04:10 42.48725 -76.58325 36940 ft 592 kts 82°
2026-05-07 04:11 42.49895 -76.47286 36946 ft 591 kts 82°
2026-05-07 04:11 42.51061 -76.36181 36936 ft 590 kts 82°
2026-05-07 04:12 42.52196 -76.25249 36953 ft 589 kts 82°
2026-05-07 04:12 42.53322 -76.14244 36940 ft 589 kts 82°
2026-05-07 04:13 42.54436 -76.03254 36946 ft 587 kts 82°
2026-05-07 04:13 42.55539 -75.92265 36945 ft 586 kts 82°
2026-05-07 04:14 42.56630 -75.81302 36936 ft 585 kts 82°
2026-05-07 04:14 42.57527 -75.72210 36924 ft 585 kts 82°
2026-05-07 04:15 42.58598 -75.61268 36919 ft 583 kts 82°
2026-05-07 04:15 42.59656 -75.50361 36924 ft 583 kts 82°
2026-05-07 04:16 42.60704 -75.39450 36918 ft 582 kts 83°
2026-05-07 04:16 42.61740 -75.28554 36932 ft 582 kts 83°
2026-05-07 04:17 42.62765 -75.17657 36929 ft 581 kts 83°
2026-05-07 04:17 42.63780 -75.06756 36914 ft 581 kts 83°
2026-05-07 04:18 42.64780 -74.95905 36947 ft 583 kts 83°
2026-05-07 04:18 42.65775 -74.84981 36947 ft 584 kts 83°
2026-05-07 04:19 42.66766 -74.73983 36950 ft 585 kts 83°
2026-05-07 04:19 42.67748 -74.62978 36940 ft 586 kts 83°
2026-05-07 04:20 42.68717 -74.51987 36929 ft 585 kts 83°
2026-05-07 04:20 42.69668 -74.41090 36926 ft 584 kts 83°
2026-05-07 04:21 42.71079 -74.24677 36928 ft 581 kts 83°
2026-05-07 04:21 42.72001 -74.13795 36889 ft 571 kts 83°
2026-05-07 04:22 42.72888 -74.03208 36914 ft 557 kts 83°
2026-05-07 04:22 42.73755 -73.92754 36913 ft 555 kts 83°
2026-05-07 04:23 42.74609 -73.82339 36909 ft 553 kts 83°
2026-05-07 04:23 42.74906 -73.71910 36904 ft 550 kts 92°
2026-05-07 04:24 42.74665 -73.61514 36904 ft 549 kts 93°
2026-05-07 04:24 42.74466 -73.51129 36897 ft 549 kts 92°
2026-05-07 04:25 42.74409 -73.45913 36680 ft 553 kts 91°
2026-05-07 04:25 42.74364 -73.40639 36054 ft 559 kts 91°
2026-05-07 04:25 42.74323 -73.35359 35407 ft 558 kts 92°
2026-05-07 04:25 42.74279 -73.30090 34677 ft 559 kts 92°
2026-05-07 04:26 42.74227 -73.24772 33921 ft 561 kts 93°
2026-05-07 04:26 42.74170 -73.19511 33082 ft 563 kts 93°
2026-05-07 04:26 42.74110 -73.14191 32302 ft 563 kts 93°
2026-05-07 04:26 42.73950 -73.08871 31482 ft 561 kts 99°
2026-05-07 04:27 42.73448 -73.03633 30758 ft 557 kts 103°
2026-05-07 04:27 42.72790 -72.98445 29915 ft 557 kts 105°
2026-05-07 04:27 42.72075 -72.93190 28914 ft 558 kts 105°
2026-05-07 04:27 42.71402 -72.88101 27985 ft 558 kts 104°
2026-05-07 04:28 42.70751 -72.82875 27022 ft 557 kts 103°
2026-05-07 04:28 42.70135 -72.77671 26065 ft 556 kts 103°
2026-05-07 04:28 42.69543 -72.72530 25334 ft 550 kts 103°
2026-05-07 04:28 42.68947 -72.67396 24617 ft 544 kts 103°
2026-05-07 04:29 42.68352 -72.62350 23935 ft 537 kts 103°
2026-05-07 04:29 42.67752 -72.57367 23217 ft 531 kts 103°
2026-05-07 04:29 42.67155 -72.52467 22730 ft 519 kts 103°
2026-05-07 04:29 42.66574 -72.47700 22461 ft 503 kts 103°
2026-05-07 04:30 42.66004 -72.43053 21969 ft 494 kts 104°
2026-05-07 04:30 42.65443 -72.38500 21669 ft 481 kts 104°
2026-05-07 04:30 42.64903 -72.34100 21567 ft 465 kts 104°
2026-05-07 04:30 42.64383 -72.29843 21462 ft 450 kts 103°
2026-05-07 04:31 42.63896 -72.25687 21272 ft 438 kts 103°
2026-05-07 04:31 42.63429 -72.21628 20851 ft 434 kts 104°
2026-05-07 04:31 42.62962 -72.17588 20377 ft 431 kts 104°
2026-05-07 04:31 42.62496 -72.13581 19925 ft 427 kts 104°
2026-05-07 04:32 42.62032 -72.09619 19516 ft 423 kts 104°
2026-05-07 04:32 42.61579 -72.05763 19130 ft 418 kts 104°
2026-05-07 04:32 42.61113 -72.01857 18706 ft 414 kts 104°
2026-05-07 04:32 42.60638 -71.98018 18286 ft 411 kts 105°
2026-05-07 04:33 42.60161 -71.94207 17864 ft 407 kts 105°
2026-05-07 04:33 42.59690 -71.90435 17412 ft 404 kts 105°
2026-05-07 04:33 42.59223 -71.86697 16949 ft 401 kts 105°
2026-05-07 04:33 42.58758 -71.82976 16507 ft 397 kts 105°
2026-05-07 04:34 42.58259 -71.79296 16067 ft 393 kts 107°
2026-05-07 04:34 42.57691 -71.75699 15651 ft 388 kts 108°
2026-05-07 04:34 42.57110 -71.72170 15248 ft 385 kts 108°
2026-05-07 04:34 42.56532 -71.68635 14814 ft 382 kts 107°
2026-05-07 04:35 42.55961 -71.65079 14411 ft 379 kts 107°
2026-05-07 04:35 42.55408 -71.61600 14015 ft 376 kts 107°
2026-05-07 04:35 42.54849 -71.58170 13812 ft 365 kts 109°
2026-05-07 04:35 42.54215 -71.54934 13578 ft 356 kts 111°
2026-05-07 04:36 42.53519 -71.51674 13145 ft 354 kts 112°
2026-05-07 04:36 42.52837 -71.48522 12724 ft 351 kts 111°
2026-05-07 04:36 42.52173 -71.45392 12608 ft 340 kts 111°
2026-05-07 04:36 42.51539 -71.42358 12514 ft 328 kts 111°
2026-05-07 04:37 42.50929 -71.39430 12396 ft 318 kts 112°
2026-05-07 04:37 42.50333 -71.36575 12125 ft 313 kts 112°
2026-05-07 04:37 42.49753 -71.33724 11766 ft 313 kts 111°
2026-05-07 04:37 42.49187 -71.30879 11418 ft 313 kts 111°
2026-05-07 04:38 42.48624 -71.28045 11100 ft 311 kts 111°
2026-05-07 04:38 42.48064 -71.25232 10836 ft 307 kts 111°
2026-05-07 04:38 42.47517 -71.22485 10790 ft 294 kts 111°
2026-05-07 04:38 42.46997 -71.19875 10766 ft 281 kts 111°
2026-05-07 04:39 42.46502 -71.17380 10763 ft 269 kts 109°
2026-05-07 04:39 42.46488 -71.14849 10782 ft 275 kts 77°
2026-05-07 04:39 42.47230 -71.12381 10807 ft 291 kts 64°
2026-05-07 04:39 42.48160 -71.09918 10788 ft 295 kts 63°
2026-05-07 04:40 42.49139 -71.07482 10765 ft 293 kts 52°
2026-05-07 04:40 42.50611 -71.05662 10790 ft 283 kts 25°
2026-05-07 04:40 42.52391 -71.04631 10789 ft 275 kts 14°
2026-05-07 04:40 42.54204 -71.03777 10791 ft 278 kts 13°
2026-05-07 04:41 42.56041 -71.02901 10796 ft 282 kts 14°
2026-05-07 04:41 42.57890 -71.02005 10725 ft 284 kts 14°
2026-05-07 04:41 42.59750 -71.01160 10598 ft 279 kts 11°
2026-05-07 04:41 42.61596 -71.00416 10353 ft 275 kts 10°
2026-05-07 04:42 42.63416 -70.99716 10034 ft 275 kts 10°
2026-05-07 04:42 42.65247 -70.99022 9794 ft 271 kts
2026-05-07 04:42 42.67058 -70.98338 9483 ft 271 kts 10°
2026-05-07 04:42 42.68880 -70.97640 9161 ft 271 kts 10°
2026-05-07 04:43 42.70687 -70.96946 8906 ft 269 kts 10°
2026-05-07 04:43 42.72482 -70.96253 8612 ft 267 kts 10°
2026-05-07 04:43 42.74265 -70.95559 8309 ft 266 kts 10°
2026-05-07 04:43 42.75961 -70.94515 7956 ft 274 kts 39°
2026-05-07 04:44 42.77005 -70.92398 7583 ft 270 kts 78°
2026-05-07 04:44 42.77066 -70.89913 7139 ft 261 kts 110°
2026-05-07 04:44 42.76321 -70.87737 6664 ft 248 kts 136°
2026-05-07 04:44 42.75049 -70.86275 6239 ft 235 kts 162°
2026-05-07 04:45 42.73543 -70.85620 5962 ft 222 kts 181°
2026-05-07 04:45 42.72048 -70.85699 5657 ft 212 kts 197°
2026-05-07 04:45 42.70606 -70.86108 5374 ft 210 kts 199°
2026-05-07 04:45 42.69184 -70.86554 5088 ft 210 kts 199°
2026-05-07 04:46 42.67763 -70.87000 4833 ft 209 kts 199°
2026-05-07 04:46 42.66348 -70.87438 4556 ft 208 kts 199°
2026-05-07 04:46 42.64944 -70.87867 4313 ft 205 kts 199°
2026-05-07 04:46 42.63599 -70.88273 4239 ft 200 kts 199°
2026-05-07 04:47 42.62228 -70.88688 4159 ft 201 kts 199°
2026-05-07 04:47 42.60849 -70.89104 4044 ft 205 kts 199°
2026-05-07 04:47 42.59429 -70.89540 3995 ft 207 kts 201°
2026-05-07 04:47 42.58076 -70.90071 3980 ft 203 kts 204°
2026-05-07 04:48 42.56743 -70.90684 3873 ft 202 kts 205°
2026-05-07 04:48 42.55421 -70.91320 3640 ft 198 kts 206°
2026-05-07 04:48 42.54141 -70.91940 3380 ft 191 kts 206°
2026-05-07 04:48 42.52922 -70.92531 3143 ft 183 kts 206°
2026-05-07 04:49 42.51745 -70.93102 2887 ft 174 kts 207°
2026-05-07 04:49 42.50637 -70.93639 2665 ft 163 kts 207°
2026-05-07 04:49 42.49599 -70.94143 2446 ft 153 kts 207°
2026-05-07 04:49 42.48620 -70.94618 2257 ft 145 kts 209°
2026-05-07 04:50 42.47701 -70.95064 2065 ft 135 kts 209°
2026-05-07 04:50 42.46860 -70.95472 1903 ft 124 kts 209°
2026-05-07 04:50 42.46081 -70.95850 1753 ft 113 kts 209°
2026-05-07 04:50 42.45351 -70.96207 1611 ft 113 kts 210°
2026-05-07 04:51 42.44594 -70.96577 1451 ft 117 kts 208°
2026-05-07 04:51 42.43816 -70.96956 1289 ft 120 kts 207°
2026-05-07 04:51 42.43013 -70.97344 1097 ft 125 kts 206°
2026-05-07 04:51 42.42194 -70.97742 950 ft 128 kts 206°
2026-05-07 04:52 42.41357 -70.98163 816 ft 132 kts 204°
2026-05-07 04:52 42.40470 -70.98580 674 ft 137 kts 203°
2026-05-07 04:52 42.39567 -70.99018 546 ft 141 kts 202°
2026-05-07 04:52 42.38602 -70.99470 359 ft 151 kts 206°
2026-05-07 04:53 42.37616 -70.99970 148 ft 152 kts 206°
2026-05-07 04:53 42.36642 -71.00433 27 ft 141 kts 206°
2026-05-07 04:53 42.35811 -71.00844 26 ft 113 kts 200°
2026-05-07 04:53 42.35469 -71.01006 27 ft 31 kts 200°
2026-05-07 04:54 42.43775 -70.96976 1278 ft 120 kts 207°
2026-05-07 04:54 42.42965 -70.97367 1083 ft 125 kts 206°
2026-05-07 04:54 42.42146 -70.97766 938 ft 128 kts 206°
2026-05-07 04:54 42.36960 -71.00281 33 ft 149 kts 206°
2026-05-07 04:55 42.36077 -71.00719 26 ft 121 kts 200°
2026-05-07 04:55 42.37411 -71.00068 106 ft 151 kts 206°
2026-05-07 04:55 42.36461 -71.00523 26 ft 135 kts 204°
2026-05-07 04:55 42.36331 -71.00594 26 ft 135 kts 202°